| time (UTC) | temp F | wind direction | speed MPH | gust MPH | rain 1hr in | rain 24hr in | rain mn in | humidity % | barometer mb |
| 20260906221520 | 78 | 214 | 1.0 | 3.0 | 0.00 | 0.00 | 0.00 | 73 | 1021.9 |
| 20260906215512 | 78 | 184 | 1.0 | 2.0 | 0.00 | 0.00 | 0.00 | 72 | 1021.9 |
| 20260906214512 | 79 | 184 | 1.0 | 2.0 | 0.00 | 0.00 | 0.00 | 72 | 1021.9 |
| 20260906213511 | 79 | 184 | 1.0 | 3.0 | 0.00 | 0.00 | 0.00 | 73 | 1021.8 |
| 20260906212512 | 79 | 184 | 1.0 | 3.0 | 0.00 | 0.00 | 0.00 | 73 | 1021.7 |
| 20260906211512 | 79 | 184 | 2.0 | 3.0 | 0.00 | 0.00 | 0.00 | 73 | 1021.7 |
| 20260906210525 | 79 | 184 | 2.0 | 4.0 | 0.00 | 0.00 | 0.00 | 73 | 1021.7 |
| 20260906205522 | 80 | 202 | 1.0 | 2.0 | 0.00 | 0.00 | 0.00 | 72 | 1021.6 |
| 20260906204522 | 80 | 202 | 2.0 | 4.0 | 0.00 | 0.00 | 0.00 | 71 | 1021.7 |
| 20260906203513 | 80 | 211 | 2.0 | 4.0 | 0.00 | 0.00 | 0.00 | 71 | 1021.7 |
| 20260906202519 | 80 | 225 | 3.0 | 5.0 | 0.00 | 0.00 | 0.00 | 72 | 1021.7 |
| 20260906201521 | 80 | 214 | 3.0 | 5.0 | 0.00 | 0.00 | 0.00 | 72 | 1021.8 |
| 20260906200519 | 80 | 198 | 2.0 | 5.0 | 0.00 | 0.00 | 0.00 | 73 | 1021.8 |
| 20260906195509 | 81 | 207 | 2.0 | 4.0 | 0.00 | 0.00 | 0.00 | 74 | 1021.8 |
| 20260906194507 | 81 | 207 | 1.0 | 4.0 | 0.00 | 0.00 | 0.00 | 74 | 1021.9 |
| 20260906193505 | 81 | 207 | 2.0 | 4.0 | 0.00 | 0.00 | 0.00 | 74 | 1022.0 |
| 20260906192503 | 81 | 215 | 2.0 | 3.0 | 0.00 | 0.00 | 0.00 | 75 | 1021.9 |
| 20260906191503 | 81 | 215 | 2.0 | 4.0 | 0.00 | 0.00 | 0.00 | 75 | 1021.8 |
| 20260906190505 | 82 | 215 | 2.0 | 4.0 | 0.00 | 0.00 | 0.00 | 75 | 1021.7 |
| 20260906184503 | 82 | 81 | 1.0 | 3.0 | 0.00 | 0.00 | 0.00 | 76 | 1021.7 |
| 20260906183504 | 82 | 81 | 2.0 | 3.0 | 0.00 | 0.00 | 0.00 | 78 | 1021.6 |
| 20260906182501 | 82 | 81 | 2.0 | 3.0 | 0.00 | 0.00 | 0.00 | 79 | 1021.5 |
| 20260906181502 | 83 | 62 | 1.0 | 2.0 | 0.00 | 0.00 | 0.00 | 78 | 1021.4 |
| 20260906180502 | 83 | 62 | 1.0 | 3.0 | 0.00 | 0.00 | 0.00 | 78 | 1021.2 |
| 20260906175502 | 83 | 62 | 2.0 | 3.0 | 0.00 | 0.00 | 0.00 | 78 | 1021.2 |
| 20260906174505 | 83 | 62 | 2.0 | 3.0 | 0.00 | 0.00 | 0.00 | 77 | 1021.1 |
| 20260906173507 | 83 | 62 | 2.0 | 4.0 | 0.00 | 0.00 | 0.00 | 77 | 1021.1 |
| 20260906172500 | 84 | 68 | 3.0 | 5.0 | 0.00 | 0.00 | 0.00 | 75 | 1021.0 |
| 20260906171453 | 84 | 80 | 4.0 | 6.0 | 0.00 | 0.00 | 0.00 | 74 | 1020.9 |
| 20260906170453 | 85 | 73 | 4.0 | 7.0 | 0.00 | 0.00 | 0.00 | 73 | 1020.9 |
| 20260906165454 | 85 | 82 | 3.0 | 5.0 | 0.00 | 0.00 | 0.00 | 71 | 1020.9 |
| 20260906163452 | 85 | 72 | 4.0 | 7.0 | 0.00 | 0.00 | 0.00 | 69 | 1020.8 |
| 20260906162453 | 86 | 40 | 5.0 | 8.0 | 0.00 | 0.00 | 0.00 | 70 | 1020.8 |
| 20260906161601 | 86 | 65 | 4.0 | 8.0 | 0.00 | 0.00 | 0.00 | 69 | 1020.8 |
| 20260906160450 | 87 | 44 | 4.0 | 10.0 | 0.00 | 0.00 | 0.00 | 68 | 1020.8 |
| 20260906155455 | 87 | 5 | 4.0 | 8.0 | 0.00 | 0.00 | 0.00 | 67 | 1020.7 |
| 20260906154450 | 87 | 52 | 4.0 | 9.0 | 0.00 | 0.00 | 0.00 | 66 | 1020.7 |
| 20260906153451 | 87 | 346 | 5.0 | 10.0 | 0.00 | 0.00 | 0.00 | 69 | 1020.6 |
| 20260906151456 | 87 | 24 | 6.0 | 11.0 | 0.00 | 0.00 | 0.00 | 68 | 1020.7 |
| 20260906150448 | 87 | 355 | 5.0 | 9.0 | 0.00 | 0.00 | 0.00 | 69 | 1020.6 |
| 20260906145455 | 87 | 321 | 6.0 | 10.0 | 0.00 | 0.00 | 0.00 | 69 | 1020.6 |
| 20260906144450 | 87 | 19 | 6.0 | 11.0 | 0.00 | 0.00 | 0.00 | 70 | 1020.6 |
| 20260906142450 | 88 | 5 | 7.0 | 12.0 | 0.00 | 0.00 | 0.00 | 69 | 1020.6 |
| 20260906141448 | 88 | 31 | 4.0 | 9.0 | 0.00 | 0.00 | 0.00 | 65 | 1020.6 |
| 20260906140453 | 88 | 9 | 4.0 | 9.0 | 0.00 | 0.00 | 0.00 | 63 | 1020.6 |
| 20260906135448 | 88 | 344 | 4.0 | 10.0 | 0.00 | 0.00 | 0.00 | 66 | 1020.6 |
| 20260906134448 | 88 | 58 | 6.0 | 10.0 | 0.00 | 0.00 | 0.00 | 64 | 1020.6 |
| 20260906132450 | 88 | 5 | 6.0 | 10.0 | 0.00 | 0.00 | 0.00 | 63 | 1020.5 |
| 20260906131443 | 89 | 53 | 6.0 | 11.0 | 0.00 | 0.00 | 0.00 | 62 | 1020.6 |
| 20260906130442 | 89 | 82 | 5.0 | 13.0 | 0.00 | 0.00 | 0.00 | 60 | 1020.6 |
| 20260906125442 | 89 | 35 | 6.0 | 11.0 | 0.00 | 0.00 | 0.00 | 58 | 1020.6 |
| 20260906124442 | 89 | 71 | 6.0 | 10.0 | 0.00 | 0.00 | 0.00 | 58 | 1020.6 |
| 20260906123443 | 89 | 71 | 6.0 | 11.0 | 0.00 | 0.00 | 0.00 | 58 | 1020.7 |
| 20260906121447 | 89 | 69 | 5.0 | 11.0 | 0.00 | 0.00 | 0.00 | 57 | 1020.6 |
| 20260906115445 | 90 | 42 | 4.0 | 9.0 | 0.00 | 0.00 | 0.00 | 54 | 1020.6 |
| 20260906114447 | 89 | 5 | 4.0 | 9.0 | 0.00 | 0.00 | 0.00 | 54 | 1020.6 |
| 20260906113441 | 89 | 76 | 5.0 | 11.0 | 0.00 | 0.00 | 0.00 | 56 | 1020.6 |
| 20260906111436 | 89 | 34 | 5.0 | 10.0 | 0.00 | 0.00 | 0.00 | 57 | 1020.7 |
| 20260906110435 | 88 | 52 | 7.0 | 12.0 | 0.00 | 0.00 | 0.00 | 57 | 1020.7 |
| 20260906105441 | 89 | 49 | 6.0 | 12.0 | 0.00 | 0.00 | 0.00 | 58 | 1020.7 |
| 20260906104438 | 89 | 34 | 7.0 | 12.0 | 0.00 | 0.00 | 0.00 | 57 | 1020.7 |
| 20260906103436 | 89 | 332 | 5.0 | 11.0 | 0.00 | 0.00 | 0.00 | 53 | 1020.8 |
| 20260906102437 | 89 | 14 | 4.0 | 9.0 | 0.00 | 0.00 | 0.00 | 54 | 1020.8 |
| 20260906101435 | 88 | 321 | 6.0 | 11.0 | 0.00 | 0.00 | 0.00 | 57 | 1020.9 |
| 20260906100433 | 88 | 351 | 5.0 | 10.0 | 0.00 | 0.00 | 0.00 | 57 | 1021.0 |
| 20260906095431 | 88 | 342 | 4.0 | 10.0 | 0.00 | 0.00 | 0.00 | 55 | 1021.0 |
| 20260906093432 | 88 | 355 | 4.0 | 8.0 | 0.00 | 0.00 | 0.00 | 59 | 1021.2 |
| 20260906092433 | 87 | 13 | 5.0 | 8.0 | 0.00 | 0.00 | 0.00 | 62 | 1021.2 |
| 20260906091432 | 86 | 351 | 5.0 | 10.0 | 0.00 | 0.00 | 0.00 | 64 | 1021.3 |
| 20260906090436 | 86 | 355 | 4.0 | 9.0 | 0.00 | 0.00 | 0.00 | 65 | 1021.5 |
| 20260906085434 | 86 | 355 | 4.0 | 8.0 | 0.00 | 0.00 | 0.00 | 66 | 1021.4 |
| 20260906084430 | 87 | 317 | 4.0 | 9.0 | 0.00 | 0.00 | 0.00 | 66 | 1021.4 |
| 20260906083429 | 88 | 320 | 3.0 | 5.0 | 0.00 | 0.00 | 0.00 | 65 | 1021.3 |
| 20260906082429 | 88 | 82 | 1.0 | 6.0 | 0.00 | 0.00 | 0.00 | 60 | 1021.3 |
| 20260906081429 | 87 | 5 | 2.0 | 3.0 | 0.00 | 0.00 | 0.00 | 62 | 1021.4 |
| 20260906080427 | 86 | 5 | 0.0 | 3.0 | 0.00 | 0.00 | 0.00 | 65 | 1021.3 |
| 20260906073427 | 85 | 83 | 2.0 | 4.0 | 0.00 | 0.00 | 0.00 | 69 | 1021.2 |
| 20260906072428 | 85 | 40 | 1.0 | 3.0 | 0.00 | 0.00 | 0.00 | 71 | 1021.2 |
| 20260906071428 | 85 | 40 | 2.0 | 4.0 | 0.00 | 0.00 | 0.00 | 71 | 1021.1 |
| 20260906070428 | 84 | 259 | 1.0 | 3.0 | 0.00 | 0.00 | 0.00 | 72 | 1021.0 |
| 20260906065426 | 83 | 238 | 1.0 | 4.0 | 0.00 | 0.00 | 0.00 | 73 | 1021.0 |
| 20260906064425 | 83 | 266 | 2.0 | 4.0 | 0.00 | 0.00 | 0.00 | 73 | 1020.9 |
| 20260906063426 | 82 | 239 | 2.0 | 3.0 | 0.00 | 0.00 | 0.00 | 71 | 1020.9 |
| 20260906061428 | 80 | 242 | 2.0 | 4.0 | 0.00 | 0.00 | 0.00 | 71 | 1020.9 |
| 20260906060425 | 80 | 215 | 1.0 | 3.0 | 0.00 | 0.00 | 0.00 | 71 | 1020.8 |
| 20260906055426 | 79 | 188 | 1.0 | 4.0 | 0.00 | 0.00 | 0.00 | 71 | 1020.8 |
| 20260906054425 | 78 | 203 | 2.0 | 5.0 | 0.00 | 0.00 | 0.00 | 71 | 1020.7 |
| 20260906053426 | 78 | 182 | 3.0 | 6.0 | 0.00 | 0.00 | 0.00 | 71 | 1020.7 |
| 20260906051426 | 76 | 204 | 4.0 | 5.0 | 0.00 | 0.00 | 0.00 | 70 | 1020.6 |
| 20260906050427 | 76 | 207 | 4.0 | 6.0 | 0.00 | 0.00 | 0.00 | 69 | 1020.6 |
| 20260906045424 | 76 | 191 | 4.0 | 6.0 | 0.00 | 0.00 | 0.00 | 70 | 1020.6 |
| 20260906043429 | 75 | 180 | 4.0 | 6.0 | 0.00 | 0.00 | 0.00 | 69 | 1020.4 |
| 20260906042425 | 76 | 193 | 4.0 | 7.0 | 0.00 | 0.00 | 0.00 | 69 | 1020.5 |
| 20260906041432 | 76 | 180 | 3.0 | 6.0 | 0.00 | 0.00 | 0.00 | 68 | 1020.5 |
| 20260906040426 | 76 | 198 | 4.0 | 6.0 | 0.00 | 0.00 | 0.00 | 67 | 1020.3 |
| 20260906035427 | 76 | 221 | 4.0 | 5.0 | 0.00 | 0.00 | 0.00 | 67 | 1020.3 |
| 20260906034423 | 76 | 200 | 3.0 | 5.0 | 0.00 | 0.00 | 0.00 | 66 | 1020.2 |
| 20260906030426 | 76 | 194 | 4.0 | 6.0 | 0.00 | 0.00 | 0.00 | 63 | 1020.1 |
| 20260906025423 | 76 | 171 | 4.0 | 6.0 | 0.00 | 0.00 | 0.00 | 63 | 1020.1 |
| 20260906024423 | 76 | 194 | 4.0 | 6.0 | 0.00 | 0.00 | 0.00 | 62 | 1020.2 |
| 20260906023421 | 76 | 185 | 4.0 | 7.0 | 0.00 | 0.00 | 0.00 | 62 | 1020.3 |
| 20260906022423 | 76 | 188 | 3.0 | 5.0 | 0.00 | 0.00 | 0.00 | 62 | 1020.3 |
| 20260906021422 | 76 | 200 | 3.0 | 6.0 | 0.00 | 0.00 | 0.00 | 62 | 1020.3 |
| 20260906020421 | 76 | 177 | 3.0 | 5.0 | 0.00 | 0.00 | 0.00 | 61 | 1020.3 |
| 20260906014412 | 77 | 229 | 2.0 | 4.0 | 0.00 | 0.00 | 0.00 | 63 | 1020.3 |
| 20260906013415 | 77 | 205 | 2.0 | 4.0 | 0.00 | 0.00 | 0.00 | 63 | 1020.2 |
| 20260906012417 | 77 | 160 | 1.0 | 4.0 | 0.00 | 0.00 | 0.00 | 64 | 1020.2 |
| 20260906011421 | 77 | 189 | 2.0 | 5.0 | 0.00 | 0.00 | 0.00 | 65 | 1020.2 |
| 20260906010415 | 77 | 215 | 3.0 | 6.0 | 0.00 | 0.00 | 0.00 | 66 | 1020.2 |
| 20260906004408 | 77 | 204 | 4.0 | 6.0 | 0.00 | 0.00 | 0.00 | 67 | 1020.2 |
| 20260906003408 | 78 | 200 | 4.0 | 6.0 | 0.00 | 0.00 | 0.00 | 67 | 1020.3 |
| 20260906002408 | 78 | 220 | 5.0 | 7.0 | 0.00 | 0.00 | 0.00 | 67 | 1020.3 |
| 20260906001408 | 78 | 229 | 5.0 | 8.0 | 0.00 | 0.00 | 0.00 | 70 | 1020.3 |
| 20260906000411 | 78 | 220 | 6.0 | 8.0 | 0.00 | 0.00 | 0.00 | 69 | 1020.3 |
| 20260905235409 | 78 | 208 | 6.0 | 9.0 | 0.00 | 0.00 | 0.00 | 68 | 1020.5 |
| 20260905234406 | 78 | 221 | 4.0 | 8.0 | 0.00 | 0.00 | 0.00 | 70 | 1020.7 |
| 20260905232413 | 78 | 214 | 2.0 | 4.0 | 0.00 | 0.00 | 0.00 | 76 | 1020.8 |
| 20260905230406 | 78 | 213 | 2.0 | 6.0 | 0.00 | 0.00 | 0.00 | 75 | 1020.7 |
| 20260905224406 | 79 | 205 | 2.0 | 5.0 | 0.00 | 0.00 | 0.00 | 76 | 1020.6 |
| 20260905223406 | 79 | 216 | 3.0 | 6.0 | 0.00 | 0.00 | 0.00 | 76 | 1020.7 |
| 20260905222406 | 79 | 214 | 3.0 | 6.0 | 0.00 | 0.00 | 0.00 | 75 | 1020.7 |